Regional Weather Roundup
Issued by NWS

Home | Current Version | Previous Version | Graphics & Text | Print | Product List | Glossary On
Versions: 1 2 3 4 5 6 7 8 9 10 11 12 13 14 15 16 17 18 19 20 21 22 23 24 25 26 27 28 29 30 31 32 33 34 35 36 37 38 39 40 41 42 43 44 45 46 47 48 49 50
826
ASUS43 KBIS 261710
RWRND

NORTH DAKOTA REGIONAL WEATHER ROUNDUP
NATIONAL WEATHER SERVICE BISMARCK ND
1200 PM CDT MON SEP 26 2016

NOTE: "FAIR" INDICATES FEW OR NO CLOUDS BELOW 12,000 FEET WITH NO
SIGNIFICANT WEATHER AND/OR OBSTRUCTIONS TO VISIBILITY.


NDZ001>003-009>011-017-261800-
NORTHWEST NORTH DAKOTA

CITY           SKY/WX    TMP DP  RH WIND       PRES   REMARKS
WILLISTON      SUNNY     60  42  51 S6        30.21F
MINOT          SUNNY     62  35  36 W20       30.12F
MINOT AFB      SUNNY     60  36  40 NW20      30.11F
$$

NDZ018>021-031>035-040>046-261800-
SOUTHWEST NORTH DAKOTA

CITY           SKY/WX    TMP DP  RH WIND       PRES   REMARKS
BISMARCK       SUNNY     63  34  33 NW18G28   30.16F
DICKINSON      SUNNY     61  33  35 NW12G21   30.20F
GARRISON         N/A     61  36  39 NW16G23   30.15F
HETTINGER ARPT SUNNY     63  38  39 NW14      30.23S
$$

NDZ004>008-012>016-024-026-027-054-261800-
NORTHEAST NORTH DAKOTA

CITY           SKY/WX    TMP DP  RH WIND       PRES   REMARKS
GRAND FORKS    MOSUNNY   59  39  47 NW24G33   29.93S
GRND FRKS AFB  SUNNY     59  37  44 NW25G31   29.94S
DEVILS LAKE    SUNNY     57  36  45 NW26G33   30.02F
$$

NDZ022-023-025-028>030-036>039-047>053-261800-
SOUTHEAST NORTH DAKOTA

CITY           SKY/WX    TMP DP  RH WIND       PRES   REMARKS
FARGO          SUNNY     62  35  36 NW25G32   29.97F
JAMESTOWN      SUNNY     61  39  44 NW23G35   30.06F
$$





USA.gov is the U.S. government's official web portal to all federal, state and local government web resources and services.